User: anonymous
Location: Lawrence Hall of Science
(37.8785°N, 122.2415°W)
Time: 02:26:13
(UTC-07:00)
Language:

NOSS 3-1 (C) - Orbit

View from above orbital plane
View from above orbital plane
View from above satellite
View from above satellite

Ground track
Ground track

The orbit data is extracted from the following two-line orbital elements,

1 26907U 01040C   14198.92502699 0.00000000  00000-0  00000-0 0    07
2 26907  63.4213 228.8546 0274000 358.1105   1.8894 13.41200674    04
Epoch (UTC): 17 July 2014 22:12:02
Eccentricity: 0.0274000
inclination: 63.4213°
perigee height: 900 km
apogee height: 1310 km
right ascension of ascending node: 228.8546°
argument of perigee: 358.1105°
revolutions per day: 13.41200674
mean anomaly at epoch: 1.8894°
orbit number at epoch: 0

The dashed part of the orbit path shows where the satellite is in the earth's shadow,  

DLR